[Iaude] MPEC D116: S/2022 J 1 [a=0.16,e=0.14,i=165.9,H=17.00]
    mpec at cfa.harvard.edu 
    mpec at cfa.harvard.edu
       
    Fri Feb 23 02:04:22 EST 2024
    
    
  
M.P.E.C. 2024-D116                            Issued 2024 February 23, 07:00 UT
     The Minor Planet Electronic Circulars contain information on unusual
         minor planets, routine data on comets and natural satellites,
         and occasional editorial announcements.  They are published
    on behalf of Division F of the International Astronomical Union by the
          Minor Planet Center, Smithsonian Astrophysical Observatory,
                          Cambridge, MA 02138, U.S.A.
			  
             Prepared using the Tamkin Foundation Computer Network
                              MPC at CFA.HARVARD.EDU
            URL https://www.minorplanetcenter.net/    ISSN 1523-6714
                                   S/2022 J 1                                   
                              Satellite of Jupiter                              
                           Revision to MPEC 2023-D44                            
Additional Observations:
    SK22J010 6C2003 02 24.40990409 01 28.73 +18 21 37.9          24.0 rWED116T14
    SK22J010 6C2003 02 24.43906309 01 27.87 +18 21 41.3          24.0 rWED116T14
    SK22J010 6C2003 02 24.45496609 01 27.38 +18 21 43.2          23.9 rWED116T14
    SK22J010 6C2003 02 24.47918709 01 26.66 +18 21 45.9          24.0 rWED116T14
    SK22J010 (C2003 02 27.42951 09 00 02.41 +18 27 02.5          24.1 RcED116568
    SK22J010 (C2003 02 27.44438 09 00 01.98 +18 27 04.0          24.5 RcED116568
    SK22J010 (C2003 02 27.45939 09 00 01.55 +18 27 05.5          23.9 RcED116568
    SK22J010 6C2003 03 25.28315208 51 19.67 +18 55 27.1          24.4 rWED116T14
    SK22J010 6C2003 03 25.31389408 51 19.32 +18 55 27.8          24.4 rWED116T14
    SK22J010 6C2003 03 27.30136508 50 58.11 +18 56 14.2                WED116T14
    SK22J010 6C2003 03 27.33550708 50 57.71 +18 56 14.9          24.4 rWED116T14
    SK22J010 /C2018 05 11.15101415 07 35.25 -15 50 18.4          23.9 rWED116W84
    SK22J010 /C2018 05 11.15584215 07 35.10 -15 50 17.8                WED116W84
    SK22J010 /C2018 05 11.16076015 07 34.90 -15 50 17.2                WED116W84
    SK22J010  C2023 10 06.27773 02 37 08.035+14 27 10.32         23.9 rVED116304
    SK22J010  C2023 10 06.29621 02 37 07.509+14 27 08.11         23.8 rVED116304
    SK22J010  C2023 10 07.25741 02 36 42.754+14 25 11.56         23.8 rVED116304
    SK22J010  C2023 10 07.30766 02 36 41.392+14 25 05.68         23.9 rVED116304
Observer details:
304 Las Campanas Observatory.  Observer S. S. Sheppard.  6.5-m Magellan-Baade
    telescope + CCD.
568 Maunakea.  Observers B. Gladman, J. Kavelaars, J.-M. Petit, L. Allen.
    Measurers L. Allen, B. Gladman.  3.5-m Canada-France-Hawaii Telescope +
    CCD.
T14 Canada-France-Hawaii Telescope, Maunakea.  Observers B. J. Gladman, S. S.
    Sheppard.  Measurer K. Ly.  3.6-m Canada-France-Hawaii Telescope + CCD.
W84 Cerro Tololo-DECam.  Observer S. S. Sheppard.  Measurer K. Ly.  4.0-m CTIO
    reflector + CCD.
Orbital elements:
    S/2022 J 1                                                                  
Epoch 2024 Mar. 31.0 TT = JDT 2460400.5                 Alexandersen            
M 184.22280              (2000.0)            P               Q                  
n   0.48087120     Peri.  334.92072     +0.24926705     +0.94981735             
a   0.1588863      Node    51.07021     +0.92444417     -0.29151508             
e   0.1357222      Incl.  165.94051     +0.28856353     +0.11342824             
P   2.05           H   17.0           P/d   748.64                              
>From 29 observations 2003 Feb. 24-2023 Oct. 07, mean residual 0".16             
Residuals in seconds of arc
030224 T14  0.0   0.3-    030325 T14  0.3+  0.2-    221015 304  0.2+  0.1+
030224 T14  0.2+  0.2-    030327 T14  0.3+  0.0     221015 304  0.1-  0.1-
030224 T14  0.0   0.0     030327 T14  0.2-  0.0     221115 G37  0.1+  0.1+
030224 T14  0.1+  0.1+    180511 W84  0.0   0.1+    221115 G37  0.0   0.1+
030227 T14  0.0   0.0     180511 W84  0.2+  0.1+    221129 304  0.1-  0.1+
030227 568  0.1-  0.1-    180511 W84  0.3-  0.1+    231006 304  0.3+  0.3+
030227 568  0.1-  0.1-    220830 807  0.1+  0.0     231006 304  0.3-  0.3+
030227 T14  0.2-  0.2+    220830 807  0.0   0.2-    231007 304  0.0   0.1-
030227 568  0.2-  0.1-    220902 807  0.0   0.1+    231007 304  0.1-  0.2+
030325 T14  0.0   0.1-    220902 807  0.3-  0.2+
M. P. C. Staff               (C) Copyright 2024 MPC           M.P.E.C. 2024-D116
    
    
More information about the Iaude
mailing list